• In Österreich
  • Länderverzeichnis
  • Für 7 Tage
  • Wassertemperatur
  • Satellitenkarten
  • Wetterkarte
  • News
  • Widgets
  • user-avatar
    Anmelden

    Stündliche Wetter Kabatnya

    Heute, 21 Mai, Montag

    Zeit Temperatur Niederschläge Wind Luftdruck Luftfeuchtigkeit
    00:00 +9°C° 0 mm 2 m/S 741 mmHg 83%
    01:00 +9°C° 0 mm 2 m/S 741 mmHg 84%
    02:00 +9°C° 0 mm 1 m/S 740 mmHg 86%
    03:00 +8°C° 0 mm 2 m/S 741 mmHg 87%
    04:00 +8°C° 0 mm 2 m/S 741 mmHg 87%
    05:00 +7°C° 0 mm 2 m/S 741 mmHg 87%
    06:00 +9°C° 0 mm 3 m/S 741 mmHg 81%
    07:00 +11°C° 0 mm 3 m/S 741 mmHg 75%
    08:00 +13°C° 0 mm 3 m/S 741 mmHg 68%
    09:00 +14°C° 0 mm 3 m/S 741 mmHg 64%
    10:00 +16°C° 0 mm 3 m/S 742 mmHg 60%
    11:00 +17°C° 0 mm 3 m/S 742 mmHg 56%
    12:00 +17°C° 0 mm 3 m/S 741 mmHg 56%
    13:00 +18°C° 0 mm 3 m/S 741 mmHg 55%
    14:00 +18°C° 0 mm 3 m/S 741 mmHg 55%
    15:00 +18°C° 0 mm 3 m/S 741 mmHg 56%
    16:00 +18°C° 0 mm 3 m/S 741 mmHg 58%
    17:00 +18°C° 0 mm 3 m/S 741 mmHg 59%
    18:00 +16°C° 0 mm 2 m/S 741 mmHg 65%
    19:00 +14°C° 0 mm 2 m/S 740 mmHg 71%
    20:00 +13°C° 0 mm 2 m/S 740 mmHg 77%
    21:00 +12°C° 0 mm 2 m/S 741 mmHg 79%
    22:00 +11°C° 0 mm 1 m/S 741 mmHg 81%
    23:00 +11°C° 0 mm 1 m/S 741 mmHg 83%

    Morgen, 22 Mai, Dienstag

    Zeit Temperatur Niederschläge Wind Luftdruck Luftfeuchtigkeit
    00:00 +10°C° 0 mm 1 m/S 741 mmHg 84%
    01:00 +10°C° 0 mm 1 m/S 741 mmHg 85%
    02:00 +9°C° 0 mm 1 m/S 741 mmHg 86%
    03:00 +9°C° 0 mm 1 m/S 741 mmHg 85%
    04:00 +9°C° 0 mm 1 m/S 741 mmHg 85%
    05:00 +9°C° 0 mm 1 m/S 741 mmHg 85%
    06:00 +12°C° 0 mm 1 m/S 741 mmHg 79%
    07:00 +14°C° 0 mm 1 m/S 741 mmHg 73%
    08:00 +16°C° 0 mm 2 m/S 741 mmHg 66%
    09:00 +17°C° 0 mm 2 m/S 742 mmHg 62%
    10:00 +18°C° 0 mm 2 m/S 742 mmHg 58%
    11:00 +20°C° 0 mm 2 m/S 742 mmHg 54%
    12:00 +21°C° 0 mm 2 m/S 742 mmHg 52%
    13:00 +21°C° 0 mm 2 m/S 741 mmHg 51%
    14:00 +23°C° 0 mm 2 m/S 741 mmHg 49%
    15:00 +23°C° 0 mm 2 m/S 741 mmHg 50%
    16:00 +23°C° 0 mm 2 m/S 741 mmHg 52%
    17:00 +23°C° 0 mm 2 m/S 741 mmHg 53%
    18:00 +20°C° 0 mm 2 m/S 741 mmHg 58%
    19:00 +18°C° 0 mm 2 m/S 741 mmHg 62%
    20:00 +16°C° 0 mm 2 m/S 741 mmHg 67%
    21:00 +16°C° 0 mm 2 m/S 741 mmHg 68%
    22:00 +15°C° 0 mm 2 m/S 741 mmHg 69%
    23:00 +14°C° 0 mm 2 m/S 741 mmHg 69%

    übermorgen, 23 Mai, Mittwoch

    Zeit Temperatur Niederschläge Wind Luftdruck Luftfeuchtigkeit
    00:00 +14°C° 0 mm 2 m/S 741 mmHg 70%
    01:00 +13°C° 0 mm 2 m/S 741 mmHg 71%
    02:00 +13°C° 0 mm 2 m/S 741 mmHg 72%
    03:00 +13°C° 0 mm 2 m/S 741 mmHg 74%
    04:00 +13°C° 0 mm 2 m/S 741 mmHg 76%
    05:00 +12°C° 0 mm 2 m/S 741 mmHg 78%
    06:00 +15°C° 0 mm 2 m/S 741 mmHg 73%
    07:00 +17°C° 0 mm 2 m/S 742 mmHg 69%
    08:00 +19°C° 0 mm 2 m/S 742 mmHg 64%
    09:00 +20°C° 0 mm 2 m/S 742 mmHg 58%
    10:00 +23°C° 0 mm 2 m/S 742 mmHg 53%
    11:00 +24°C° 0 mm 2 m/S 742 mmHg 48%
    12:00 +24°C° 0 mm 2 m/S 742 mmHg 46%
    13:00 +25°C° 0 mm 2 m/S 741 mmHg 45%
    14:00 +26°C° 0 mm 2 m/S 741 mmHg 43%
    15:00 +25°C° 0 mm 2 m/S 741 mmHg 45%
    16:00 +25°C° 0 mm 2 m/S 741 mmHg 47%
    17:00 +25°C° 0 mm 2 m/S 740 mmHg 49%
    18:00 +23°C° 0 mm 2 m/S 740 mmHg 55%
    19:00 +20°C° 0 mm 2 m/S 740 mmHg 60%
    20:00 +18°C° 0 mm 2 m/S 740 mmHg 66%
    21:00 +17°C° 0 mm 2 m/S 740 mmHg 69%
    22:00 +17°C° 0 mm 2 m/S 740 mmHg 71%
    23:00 +16°C° 0 mm 2 m/S 740 mmHg 74%

    24 Mai, Donnerstag

    Zeit Temperatur Niederschläge Wind Luftdruck Luftfeuchtigkeit
    00:00 +15°C° 0 mm 2 m/S 740 mmHg 75%
    01:00 +15°C° 0 mm 1 m/S 739 mmHg 77%
    02:00 +14°C° 0 mm 1 m/S 739 mmHg 79%
    03:00 +14°C° 0 mm 2 m/S 739 mmHg 80%
    04:00 +14°C° 0 mm 2 m/S 739 mmHg 82%
    05:00 +14°C° 0 mm 2 m/S 739 mmHg 83%
    06:00 +16°C° 0 mm 2 m/S 739 mmHg 78%
    07:00 +18°C° 0 mm 3 m/S 739 mmHg 74%
    08:00 +20°C° 0 mm 3 m/S 739 mmHg 69%
    09:00 +21°C° 0 mm 4 m/S 739 mmHg 65%
    10:00 +22°C° 0 mm 4 m/S 739 mmHg 61%
    11:00 +25°C° 0 mm 4 m/S 739 mmHg 58%
    12:00 +25°C° 0 mm 5 m/S 739 mmHg 56%
    13:00 +26°C° 0 mm 5 m/S 738 mmHg 55%
    14:00 +26°C° 0 mm 5 m/S 738 mmHg 54%
    15:00 +26°C° 0 mm 5 m/S 738 mmHg 56%
    16:00 +26°C° 0 mm 5 m/S 738 mmHg 59%
    17:00 +25°C° 0 mm 5 m/S 737 mmHg 61%
    18:00 +23°C° 0 mm 5 m/S 737 mmHg 68%
    19:00 +21°C° 0 mm 4 m/S 737 mmHg 74%
    20:00 +19°C° 0 mm 4 m/S 737 mmHg 80%
    21:00 +19°C° 0 mm 4 m/S 737 mmHg 83%
    22:00 +18°C° 0 mm 4 m/S 737 mmHg 85%
    23:00 +17°C° 0 mm 5 m/S 737 mmHg 87%

    25 Mai, Freitag

    Zeit Temperatur Niederschläge Wind Luftdruck Luftfeuchtigkeit
    00:00 +17°C° 0,1 mm 5 m/S 737 mmHg 88%
    01:00 +16°C° 0,1 mm 5 m/S 737 mmHg 89%
    02:00 +16°C° 0,1 mm 5 m/S 737 mmHg 90%
    03:00 +15°C° 0,1 mm 6 m/S 737 mmHg 90%
    04:00 +15°C° 0,1 mm 6 m/S 737 mmHg 90%
    05:00 +15°C° 0,1 mm 6 m/S 737 mmHg 90%
    06:00 +16°C° 0 mm 6 m/S 738 mmHg 86%
    07:00 +17°C° 0 mm 6 m/S 738 mmHg 83%
    08:00 +18°C° 0 mm 7 m/S 738 mmHg 79%
    09:00 +20°C° 0 mm 7 m/S 738 mmHg 76%
    10:00 +22°C° 0 mm 8 m/S 739 mmHg 73%
    11:00 +23°C° 0 mm 8 m/S 739 mmHg 69%
    12:00 +23°C° 0,1 mm 8 m/S 739 mmHg 68%
    13:00 +23°C° 0,1 mm 8 m/S 739 mmHg 67%
    14:00 +23°C° 0,1 mm 8 m/S 739 mmHg 66%
    15:00 +23°C° 0,2 mm 8 m/S 739 mmHg 68%
    16:00 +22°C° 0,2 mm 7 m/S 739 mmHg 69%
    17:00 +21°C° 0,2 mm 7 m/S 740 mmHg 71%
    18:00 +20°C° 0 mm 7 m/S 740 mmHg 74%
    19:00 +19°C° 0 mm 6 m/S 740 mmHg 76%
    20:00 +16°C° 0 mm 6 m/S 741 mmHg 79%
    21:00 +15°C° 0 mm 6 m/S 741 mmHg 79%
    22:00 +14°C° 0 mm 6 m/S 742 mmHg 78%
    23:00 +13°C° 0 mm 6 m/S 742 mmHg 77%

    26 Mai, Samstag

    Zeit Temperatur Niederschläge Wind Luftdruck Luftfeuchtigkeit
    00:00 +13°C° 0 mm 6 m/S 743 mmHg 77%
    01:00 +11°C° 0 mm 6 m/S 743 mmHg 76%
    02:00 +10°C° 0 mm 5 m/S 743 mmHg 76%
    03:00 +9°C° 0 mm 5 m/S 744 mmHg 75%
    04:00 +8°C° 0 mm 5 m/S 744 mmHg 75%
    05:00 +8°C° 0 mm 5 m/S 745 mmHg 75%
    06:00 +9°C° 0 mm 6 m/S 745 mmHg 70%
    07:00 +10°C° 0 mm 6 m/S 746 mmHg 66%
    08:00 +11°C° 0 mm 6 m/S 747 mmHg 62%
    09:00 +13°C° 0 mm 6 m/S 747 mmHg 58%
    10:00 +14°C° 0 mm 6 m/S 747 mmHg 55%
    11:00 +15°C° 0 mm 6 m/S 747 mmHg 51%
    12:00 +16°C° 0 mm 6 m/S 747 mmHg 51%
    13:00 +16°C° 0 mm 6 m/S 747 mmHg 50%
    14:00 +16°C° 0 mm 6 m/S 747 mmHg 50%
    15:00 +16°C° 0 mm 6 m/S 747 mmHg 51%
    16:00 +16°C° 0 mm 6 m/S 747 mmHg 53%
    17:00 +16°C° 0 mm 5 m/S 747 mmHg 54%
    18:00 +14°C° 0 mm 5 m/S 748 mmHg 60%
    19:00 +13°C° 0 mm 4 m/S 748 mmHg 66%
    20:00 +11°C° 0 mm 3 m/S 748 mmHg 73%
    21:00 +10°C° 0 mm 3 m/S 748 mmHg 75%
    22:00 +9°C° 0 mm 3 m/S 748 mmHg 78%
    23:00 +8°C° 0 mm 3 m/S 749 mmHg 80%
    Mehr zeigen